Youngstown, OH

3:23 AM EDT on June 25, 2017 (GMT -0400)
Youngstown-Warren Regional

Weather History for KYNG - December, 2012

Change the Weather History Date:

Wednesday, December 26, 2012

  Actual Average Record
Temperature  
Mean Temperature 28 °F 27 °F  
Max Temperature 31 °F 34 °F 64 °F (1982)
Min Temperature 25 °F 21 °F -6 °F (1983)
Degree Days  
Heating Degree Days 37 38  
Month to date heating degree days 687 886  
Since 1 July heating degree days 2068 2215  
Cooling Degree Days 0 0  
Month to date cooling degree days 0 0  
Year to date cooling degree days 761 544  
Moisture  
Dew Point 22 °F    
Average Humidity 78    
Maximum Humidity 92    
Minimum Humidity 63    
Precipitation  
Precipitation 0.81 in 0.09 in 0.81 in (2012)
Month to date precipitation 4.66 2.53  
Year to date precipitation 44.56 38.45  
Snow  
Snow 10.70 in 0.50 in - ()
Month to date snowfall 17.1 12.4  
Since 1 July snowfall 20.0 16.8  
Snow Depth 2.00 in    
Sea Level Pressure  
Sea Level Pressure 29.82 in    
Wind  
Wind Speed 13 mph (ENE)    
Max Wind Speed 22 mph    
Max Gust Speed 28 mph    
Visibility 4 miles    
Events Snow    
T = Trace of Precipitation, MM = Missing Value Source: NWS Daily Summary

Daily Weather History Graph

Daily Weather History Graph

Search for Another Location

Airport or City:

Trip Planner

Search our weather history database for the weather conditions in past years. The results will help you decide how hot, cold, wet, or windy it might be!

Date:

Astronomy

Dec. 26, 2012 Rise Set
Actual Time 7:47 AM EST 5:00 PM EST
Civil Twilight 7:15 AM EST 5:31 PM EST
Nautical Twilight 6:41 AM EST 6:06 PM EST
Astronomical Twilight 6:07 AM EST 6:39 PM EST
Moon 3:52 PM EST (12/26) 6:09 AM EST (12/26)
Length of Visible Light 10h 15m
Length of Day
9h 12m
Waxing Gibbous, 97% of the Moon is Illuminated
Dec 26
Waxing Gibbous
Dec 28
Full
Jan 4
Last Quarter
Jan 11
New
Jan 18
First Quarter

Hourly Weather History & Observations

Time (EST) Temp. Windchill Dew Point Humidity Pressure Visibility Wind Dir Wind Speed Gust Speed Precip Events Conditions
12:51 AM 30.0 °F 20.0 °F 19.9 °F 66% 30.23 in 10.0 mi ENE 12.7 mph - N/A   Overcast
1:11 AM 30.2 °F 20.2 °F 19.4 °F 64% 30.17 in 10.0 mi ENE 12.7 mph - N/A   Overcast
1:51 AM 28.9 °F 19.8 °F 19.0 °F 67% 30.19 in 10.0 mi ENE 10.4 mph - N/A   Overcast
2:51 AM 28.9 °F 19.2 °F 19.0 °F 67% 30.16 in 10.0 mi ENE 11.5 mph - N/A   Overcast
3:51 AM 28.9 °F 19.8 °F 19.0 °F 67% 30.12 in 10.0 mi ENE 10.4 mph - N/A   Overcast
4:51 AM 28.0 °F 18.6 °F 19.0 °F 69% 30.08 in 10.0 mi ENE 10.4 mph 21.9 mph N/A   Overcast
5:51 AM 27.0 °F 16.7 °F 19.9 °F 75% 30.08 in 10.0 mi East 11.5 mph - N/A   Overcast
6:51 AM 27.0 °F 15.2 °F 19.9 °F 75% 30.06 in 10.0 mi East 15.0 mph - N/A   Mostly Cloudy
7:51 AM 27.0 °F 16.7 °F 19.9 °F 75% 30.00 in 10.0 mi East 11.5 mph - N/A   Overcast
8:51 AM 27.0 °F 14.7 °F 19.9 °F 75% 29.96 in 10.0 mi East 16.1 mph 24.2 mph N/A   Overcast
9:51 AM 28.0 °F 17.0 °F 19.9 °F 72% 29.95 in 10.0 mi ENE 13.8 mph - N/A   Overcast
10:51 AM 27.0 °F 16.1 °F 19.9 °F 75% 29.93 in 0.8 mi East 12.7 mph - 0.00 in Snow Light Snow
10:58 AM 26.6 °F 15.7 °F 21.2 °F 80% 29.89 in 0.2 mi East 12.7 mph - 0.00 in Snow Heavy Snow
11:04 AM 26.6 °F 16.2 °F 21.2 °F 80% 29.88 in 0.2 mi East 11.5 mph - 0.01 in Snow Heavy Snow
11:51 AM 26.1 °F 14.0 °F 23.0 °F 88% 29.87 in 0.2 mi East 15.0 mph - 0.13 in Snow Heavy Snow
12:23 PM 26.6 °F 14.3 °F 21.2 °F 80% 29.78 in 0.2 mi East 16.1 mph 26.5 mph 0.07 in Snow Heavy Snow
12:51 PM 26.1 °F 11.6 °F 21.9 °F 84% 29.79 in 0.2 mi East 21.9 mph 27.6 mph 0.09 in Snow Heavy Snow
1:51 PM 26.1 °F 13.1 °F 23.0 °F 88% 29.72 in 0.2 mi East 17.3 mph - 0.13 in Snow Heavy Snow
2:20 PM 26.6 °F 13.8 °F 23.0 °F 86% 29.67 in 0.5 mi East 17.3 mph 24.2 mph 0.10 in Snow Snow
2:51 PM 27.0 °F 15.6 °F 24.1 °F 89% 29.71 in 0.5 mi East 13.8 mph 23.0 mph 0.15 in Snow Snow
3:08 PM 28.4 °F 18.0 °F 24.8 °F 86% 29.68 in 0.8 mi ESE 12.7 mph 20.7 mph 0.01 in Snow Light Snow
3:29 PM 28.4 °F 18.5 °F 24.8 °F 86% 29.67 in 1.0 mi East 11.5 mph - 0.04 in Snow Light Snow
3:40 PM 28.4 °F 19.1 °F 23.0 °F 80% 29.67 in 0.8 mi East 10.4 mph 17.3 mph 0.05 in Snow Light Snow
3:51 PM 28.0 °F 18.1 °F 24.1 °F 85% 29.71 in 0.5 mi East 11.5 mph - 0.06 in Snow Snow
4:51 PM 27.0 °F 18.7 °F 25.0 °F 92% 29.70 in 0.5 mi NE 8.1 mph - 0.09 in Snow Snow
5:37 PM 26.6 °F 16.8 °F 24.8 °F 93% 29.64 in 0.5 mi NNE 10.4 mph - 0.06 in Snow Snow
5:51 PM 27.0 °F 17.3 °F 24.1 °F 89% 29.68 in 0.5 mi NNE 10.4 mph - 0.07 in Snow Snow
6:37 PM 26.6 °F 17.5 °F 24.8 °F 93% 29.64 in 0.5 mi NNE 9.2 mph - 0.06 in Snow Snow
6:51 PM 27.0 °F 18.7 °F 25.0 °F 92% 29.68 in 0.5 mi NNE 8.1 mph - 0.07 in Snow Snow
7:40 PM 28.4 °F 19.1 °F 24.8 °F 86% 29.64 in 0.8 mi NNE 10.4 mph - 0.03 in Snow Light Snow
7:51 PM 26.6 °F 15.7 °F 24.8 °F 93% 29.64 in 0.8 mi NNE 12.7 mph - N/A Snow Light Snow
8:36 PM 26.6 °F 15.2 °F 24.8 °F 93% 29.63 in 0.8 mi NNE 13.8 mph - 0.02 in Snow Light Snow
8:51 PM 27.0 °F 16.1 °F 24.1 °F 89% 29.68 in 0.8 mi NNE 12.7 mph - 0.02 in Snow Light Snow
9:30 PM 26.6 °F 15.2 °F 24.8 °F 93% 29.63 in 5.0 mi NNE 13.8 mph - 0.01 in Snow Light Snow
9:51 PM 26.6 °F 15.2 °F 23.0 °F 86% 29.63 in 7.0 mi NNE 13.8 mph - N/A Snow Light Snow
10:28 PM 26.6 °F 14.7 °F 23.0 °F 86% 29.64 in 7.0 mi NNE 15.0 mph - 0.00 in Snow Light Snow
10:51 PM 26.1 °F 15.0 °F 21.9 °F 84% 29.68 in 6.0 mi NNE 12.7 mph - 0.00 in Snow Light Snow
11:24 PM 24.8 °F 14.6 °F 21.2 °F 86% 29.63 in 9.0 mi NNE 10.4 mph - 0.00 in Snow Light Snow
11:44 PM 24.8 °F 16.9 °F 21.2 °F 86% 29.64 in 6.0 mi NNE 6.9 mph - 0.00 in Snow Light Snow
11:51 PM 25.0 °F 14.8 °F 21.0 °F 85% 29.68 in 4.0 mi North 10.4 mph - 0.00 in Snow Light Snow